Location: Gro� Glienicke
(52.4675°N, 13.1079°E)
Time: 18:12:20
(UTC+00:00)

CRYOSAT 2 - Pass Details

Date: 06 July 2020
Orbit: 714 x 724 km, 92.0° (Epoch: 12 August)

Event Time Altitude Azimuth Distance (km) Brightness Sun altitude
Rises 23:38:51 0° 4° (N) 3,140 9.6 -14.8°
Reaches altitude 10° 23:41:09 10° 5° (N) 2,214 8.3 -14.7°
Maximum altitude 23:46:03 90° 104° (ESE) 724 4.3 -14.6°
Enters shadow 23:49:07 23° 186° (S) 1,495 5.4 -14.6°
